Rockford, IL

3:57 PM CDT on September 29, 2016 (GMT -0500)
Greater Rockford

Weather History for KRFD - October, 2011

Change the Weather History Date:

Monday, October 24, 2011

  Actual Average Record
Temperature  
Mean Temperature 50 °F 49 °F  
Max Temperature 63 °F 59 °F 80 °F (1963)
Min Temperature 37 °F 39 °F 18 °F (1981)
Degree Days  
Heating Degree Days 15 16  
Month to date heating degree days 224 298  
Since 1 July heating degree days 390 429  
Cooling Degree Days 0 0  
Month to date cooling degree days 14 8  
Year to date cooling degree days 1019 819  
Moisture  
Dew Point 39 °F    
Average Humidity 66    
Maximum Humidity 100    
Minimum Humidity 32    
Precipitation  
Precipitation 0.00 in 0.08 in 1.46 in (1967)
Month to date precipitation 1.49 2.06  
Year to date precipitation 32.86 31.07  
Snow  
Snow 0.00 in 0.00 in T in (2013)
Month to date snowfall 0.0 0.0  
Since 1 July snowfall 0.0 0.0  
Since 1 September snowfall 0.0 0.0  
Snow Depth -    
Sea Level Pressure  
Sea Level Pressure 30.06 in    
Wind  
Wind Speed 6 mph (WSW)    
Max Wind Speed 15 mph    
Max Gust Speed 20 mph    
Visibility 9 miles    
Events Fog    
T = Trace of Precipitation, MM = Missing Value Source: NWS Daily Summary

Daily Weather History Graph

Daily Weather History Graph

Search for Another Location

Airport or City:

Trip Planner

Search our weather history database for the weather conditions in past years. The results will help you decide how hot, cold, wet, or windy it might be!

Date:

Astronomy

Oct. 24, 2011 Rise Set
Actual Time 7:19 AM CDT 6:01 PM CDT
Civil Twilight 6:50 AM CDT 6:29 PM CDT
Nautical Twilight 6:17 AM CDT 7:02 PM CDT
Astronomical Twilight 5:45 AM CDT 7:34 PM CDT
Moon 4:35 AM CDT (10/24) 4:27 PM CDT (10/24)
Length of Visible Light 11h 39m
Length of Day
10h 41m
Waning Crescent, 7% of the Moon is Illuminated
Oct 24
Waning Crescent
Oct 26
New
Nov 2
First Quarter
Nov 10
Full
Nov 18
Last Quarter

Hourly Weather History & Observations

Time (CDT) Temp. Windchill Dew Point Humidity Pressure Visibility Wind Dir Wind Speed Gust Speed Precip Events Conditions
12:54 AM 50.0 °F - 48.0 °F 93% 29.90 in 10.0 mi WNW 6.9 mph - N/A   Partly Cloudy
1:54 AM 50.0 °F - 46.9 °F 89% 29.92 in 10.0 mi NNW 8.1 mph - N/A   Partly Cloudy
2:54 AM 48.0 °F - 45.0 °F 89% 29.94 in 10.0 mi NNW 6.9 mph - N/A   Clear
3:54 AM 46.0 °F 43.1 °F 43.0 °F 89% 29.96 in 10.0 mi NNW 5.8 mph - N/A   Clear
4:54 AM 44.1 °F 42.5 °F 41.0 °F 89% 29.99 in 10.0 mi NNW 3.5 mph - N/A   Clear
5:54 AM 41.0 °F - 39.0 °F 93% 30.02 in 10.0 mi Calm Calm - N/A   Clear
6:54 AM 39.9 °F - 39.0 °F 97% 30.04 in 10.0 mi Calm Calm - N/A   Clear
7:30 AM 39.2 °F 37.0 °F 37.4 °F 93% 30.05 in 0.5 mi SW 3.5 mph - N/A Fog Fog
7:35 AM 37.4 °F 33.8 °F 37.4 °F 100% 30.05 in 0.2 mi SW 4.6 mph - N/A Fog Fog
7:52 AM 37.4 °F - 37.4 °F 100% 30.06 in 2.5 mi Calm Calm - N/A   Clear
7:54 AM 37.9 °F 35.5 °F 37.0 °F 97% 30.07 in 2.0 mi SSW 3.5 mph - N/A   Clear
7:59 AM 39.2 °F - 37.4 °F 93% 30.06 in 8.0 mi Calm Calm - N/A   Clear
8:54 AM 43.0 °F 41.3 °F 42.1 °F 97% 30.10 in 10.0 mi South 3.5 mph - N/A   Clear
9:54 AM 51.1 °F - 44.1 °F 77% 30.12 in 10.0 mi NW 6.9 mph - N/A   Clear
10:54 AM 55.9 °F - 41.0 °F 57% 30.13 in 10.0 mi WNW 8.1 mph - N/A   Clear
11:54 AM 60.1 °F - 39.9 °F 47% 30.13 in 10.0 mi West 6.9 mph - N/A   Clear
12:54 PM 60.8 °F - 35.6 °F 39% 30.11 in 10.0 mi West 9.2 mph 17.3 mph N/A   Clear
1:54 PM 63.0 °F - 34.0 °F 34% 30.09 in 10.0 mi WSW 12.7 mph 18.4 mph N/A   Clear
2:54 PM 63.0 °F - 32.0 °F 31% 30.09 in 10.0 mi West 11.5 mph - N/A   Clear
3:54 PM 63.0 °F - 32.0 °F 31% 30.09 in 10.0 mi WSW 9.2 mph - N/A   Clear
4:54 PM 62.1 °F - 33.1 °F 34% 30.10 in 10.0 mi SW 6.9 mph - N/A   Partly Cloudy
5:54 PM 59.0 °F - 35.1 °F 41% 30.11 in 10.0 mi SW 3.5 mph - N/A   Partly Cloudy
6:54 PM 52.0 °F - 37.0 °F 57% 30.11 in 10.0 mi South 4.6 mph - N/A   Scattered Clouds
7:54 PM 51.1 °F - 37.0 °F 59% 30.11 in 10.0 mi SSE 4.6 mph - N/A   Scattered Clouds
8:54 PM 48.9 °F - 37.9 °F 66% 30.12 in 10.0 mi South 4.6 mph - N/A   Scattered Clouds
9:54 PM 48.0 °F - 36.0 °F 63% 30.11 in 10.0 mi SSE 4.6 mph - N/A   Scattered Clouds
10:54 PM 48.0 °F - 37.0 °F 66% 30.11 in 10.0 mi South 3.5 mph - N/A   Scattered Clouds
11:54 PM 48.0 °F - 37.0 °F 66% 30.10 in 10.0 mi South 4.6 mph - N/A   Scattered Clouds